[[{"header":{"parameterUnit":"m.s-1","parameterCategory":1,"la1":30.2991,"la2":30.254,"lo1":-89.0895,"lo2":-89.0444,"dy":0.0017,"dx":0.0017,"nx":28,"ny":28,"refTime":"2025-09-11T03:00:00:Z","depth":0,"parameterNumber":2,"parameterNumberName":"U-component_of_WINDS"},"data":[0,0,0,0,0,0,0,0,0,0,0,0,0,0,0,0,0,0,0,0,0,0,0,0,0,0,0,0,0,0,0,0,0,0,0,0,0,0,0,0,0,0,0,0,0,0,0,0,0,0,0,0,0,0,0,0,0,0,1.9405,1.9407,0,1.9505,1.9506,1.9507,1.9552,1.9552,1.9552,1.9552,1.965,1.9652,1.9655,0,0,0,0,0,0,0,0,0,0,0,0,0,1.9249,1.9252,1.9405,1.9407,1.9408,1.9505,1.9506,1.9508,1.9552,1.9552,1.9552,1.9552,1.9649,1.9652,1.9655,0,0,0,0,0,0,0,0,0,0,0,0,0,1.933,1.9253,1.9405,1.9442,1.9446,1.9505,1.9506,1.9508,1.9552,1.9552,1.9552,1.9552,1.9648,1.9652,1.9656,1.9684,0,0,1.9668,1.967,0,0,0,0,0,0,0,0,1.9325,1.9335,1.9435,1.9439,1.9444,1.9516,1.9487,1.9567,1.9552,1.9512,1.9552,1.9552,1.9605,1.9613,1.9632,1.9689,1.9693,1.9669,1.9671,1.9673,1.9674,0,0,0,0,0,0,0,1.9319,1.9331,1.9445,1.9437,1.9442,1.9452,1.9463,1.9503,1.9558,1.9515,1.9519,1.953,1.9608,1.9628,1.9634,1.9694,1.9669,1.9672,1.9675,1.9676,1.978,1.978,0,0,0,0,0,0,1.9308,1.9326,1.9442,1.9448,1.9383,1.9455,1.9468,1.9493,1.9558,1.9568,1.953,1.9532,1.9621,1.963,1.9638,1.9676,1.9673,1.9677,1.9679,1.9779,1.978,1.978,0,0,0,0,0,0,1.9305,1.9318,1.9438,1.9388,1.9404,1.9458,1.9486,1.9495,1.9515,1.9569,1.9579,1.9541,1.9621,1.9632,1.9673,1.968,1.9678,1.9682,1.9779,1.9779,1.978,1.9751,0,0,0,0,0,0,1.93,1.9317,1.9329,1.9388,1.9407,1.9472,1.9487,1.9497,1.9523,1.9526,1.9582,1.9591,1.9622,1.9666,1.9677,1.9685,1.9685,1.9779,1.9779,1.978,1.9751,1.975,1.9749,0,0,0,0,0,1.9295,1.9316,1.933,1.9343,1.9423,1.9472,1.9482,1.9519,1.9523,1.9535,1.957,1.9589,1.9677,1.967,1.9682,1.9692,1.9778,1.9779,1.978,1.9752,1.975,1.9749,0,0,0,0,0,0,1.9255,1.9324,1.934,1.9382,1.9421,1.9479,1.9496,1.9516,1.9554,1.9555,1.9598,1.961,1.9646,1.9673,1.9664,1.9723,1.9729,1.9732,1.9704,1.9703,1.9702,1.9695,1.9689,0,0,0,0,0,1.9251,1.9286,1.9345,1.9375,1.9394,1.9442,1.9464,1.9489,1.9531,1.9547,1.9585,1.9623,1.966,1.9683,1.9719,1.9755,1.9768,1.9768,1.9767,1.9766,1.9768,1.9789,1.979,1.9782,1.9782,1.9782,0,0,1.9243,1.9286,1.9305,1.9369,1.9402,1.9436,1.9455,1.9491,1.9516,1.9552,1.9593,1.9622,1.9668,1.9706,1.9725,1.9729,1.9773,1.9767,1.9765,1.9768,1.979,1.979,1.9791,1.9783,1.9783,1.9783,0,0,1.9247,1.9283,1.9313,1.9346,1.9397,1.9428,1.9435,1.9491,1.9512,1.9554,1.9582,1.9612,1.9674,1.9706,1.973,1.9745,1.9764,1.9756,1.975,1.977,1.9771,1.9771,1.9777,1.9779,1.9758,1.9758,1.9758,0,1.9231,1.9285,1.9325,1.9359,1.9386,1.9422,1.9451,1.9481,1.954,1.9557,1.9562,1.9641,1.9674,1.9721,1.9725,1.9743,1.9752,1.975,1.9768,1.9769,1.977,1.9776,1.9778,1.9756,1.9756,1.9757,1.9757,0,1.9262,1.9299,1.9317,1.9375,1.9404,1.9436,1.9479,1.9503,1.9525,1.9556,1.9598,1.9639,1.9685,1.9697,1.9719,1.9747,1.9748,1.976,1.9767,1.9769,1.9775,1.9777,1.9754,1.9755,1.9755,1.9756,0,0,1.9244,1.9324,1.933,1.9357,1.9415,1.9444,1.9477,1.9523,1.9543,1.9582,1.961,1.9662,1.9673,1.9701,1.9726,1.9743,1.9753,1.9753,1.9754,1.9751,1.9786,1.9778,1.978,1.9766,1.9767,1.9767,1.9783,0,1.9256,1.9318,1.9355,1.9402,1.9436,1.947,1.9499,1.9537,1.9566,1.9599,1.963,1.9667,1.9678,1.9695,1.9714,1.9748,1.9761,1.9747,1.9792,1.9793,1.978,1.9783,1.9774,1.9787,1.9785,1.9786,1.9786,0,1.9278,1.9319,1.9369,1.9424,1.944,1.9465,1.951,1.9541,1.9585,1.9604,1.9635,1.9661,1.9696,1.97,1.9749,1.9739,1.9759,1.9779,1.978,1.9786,1.979,1.9789,1.9792,1.9794,1.979,1.979,1.979,0,1.926,1.9327,1.9366,1.9388,1.9452,1.9469,1.9497,1.954,1.9566,1.9605,1.9621,1.9663,1.9686,1.9717,1.9753,1.9753,1.9798,1.9806,1.9815,1.9814,1.9823,1.9822,1.9829,1.9836,1.9836,1.9836,1.9836,0,1.927,1.9299,1.9359,1.9383,1.9416,1.9458,1.949,1.952,1.9558,1.9588,1.9619,1.9646,1.9691,1.9724,1.9752,1.9788,1.9797,1.9814,1.9821,1.9812,1.9809,1.9825,1.9826,1.9836,1.9836,1.9836,1.9836,0,1.9255,1.9296,1.9341,1.9399,1.9414,1.9437,1.9486,1.9509,1.954,1.9577,1.9588,1.9636,1.9676,1.9715,1.9767,1.9786,1.9822,1.9831,1.9807,1.9811,1.9819,1.9818,1.9837,1.9842,1.9844,1.9844,1.9844,0,1.9259,1.9283,1.9343,1.9366,1.9393,1.9429,1.9456,1.9497,1.9523,1.9574,1.9592,1.9634,1.967,1.9731,1.977,1.981,1.9821,1.9825,1.9827,1.9817,1.9822,1.982,1.9822,1.9824,1.9824,1.9824,1.9823,0,1.9261,1.928,1.9318,1.9362,1.9393,1.943,1.9467,1.9484,1.9532,1.9559,1.9601,1.9629,1.9683,1.9724,1.9769,1.9796,1.9818,1.9822,1.9827,1.9817,1.9803,1.9811,1.9805,1.9822,1.9822,1.9822,1.9822,1.9822,1.9256,1.9279,1.9325,1.9366,1.9399,1.9433,1.9459,1.9493,1.9529,1.9577,1.9599,1.9641,1.9683,1.9746,1.9773,1.9806,1.9811,1.9817,1.9819,1.982,1.9818,1.9797,1.9814,1.9814,1.9814,1.9814,1.9814,0,1.926,1.9292,1.9329,1.9381,1.9413,1.9431,1.9474,1.9499,1.9535,1.9574,1.9609,1.9656,1.9696,1.9739,1.9781,1.9799,1.981,1.9809,1.9808,1.9814,1.981,1.9803,1.9799,1.9799,1.9799,1.9799,1.9799,1.9799,1.9266,1.9305,1.933,1.9386,1.9417,1.9459,1.9482,1.9513,1.9545,1.9597,1.9631,1.9658,1.9698,1.9744,1.9781,1.9792,1.9807,1.9803,1.9817,1.9813,1.9814,1.9815,1.9808,1.9805,1.9805,1.9817,1.9817,1.9817]},{"header":{"parameterUnit":"m.s-1","parameterCategory":1,"la1":30.2991,"la2":30.254,"lo1":-89.0895,"lo2":-89.0444,"dy":0.0017,"dx":0.0017,"nx":28,"ny":28,"refTime":"2025-09-11T03:00:00:Z","depth":0,"parameterNumber":3,"parameterNumberName":"V-component_of_WINDS"},"data":[0,0,0,0,0,0,0,0,0,0,0,0,0,0,0,0,0,0,0,0,0,0,0,0,0,0,0,0,0,0,0,0,0,0,0,0,0,0,0,0,0,0,0,0,0,0,0,0,0,0,0,0,0,0,0,0,0,0,0.4032,0.4031,0,0.3935,0.3934,0.3933,0.3889,0.389,0.389,0.389,0.3786,0.3783,0.378,0,0,0,0,0,0,0,0,0,0,0,0,0,0.4175,0.4173,0.4032,0.4031,0.403,0.3935,0.3934,0.3933,0.3889,0.389,0.389,0.389,0.3787,0.3784,0.378,0,0,0,0,0,0,0,0,0,0,0,0,0,0.4099,0.4172,0.4032,0.3997,0.3993,0.3936,0.3934,0.3932,0.3889,0.389,0.389,0.389,0.3788,0.3784,0.378,0.3749,0,0,0.3767,0.3765,0,0,0,0,0,0,0,0,0.4103,0.4094,0.4003,0.3999,0.3995,0.3925,0.3946,0.3871,0.3889,0.3929,0.389,0.389,0.3832,0.3824,0.3805,0.3744,0.374,0.3766,0.3763,0.3762,0.376,0,0,0,0,0,0,0,0.4109,0.4098,0.3994,0.4002,0.3997,0.3984,0.3974,0.3932,0.388,0.3925,0.3922,0.3911,0.3829,0.3809,0.3802,0.3738,0.3766,0.3762,0.376,0.3758,0.3646,0.3645,0,0,0,0,0,0,0.4121,0.4103,0.3997,0.3991,0.4051,0.3982,0.397,0.3947,0.388,0.3871,0.3911,0.3909,0.3817,0.3807,0.3799,0.3757,0.3762,0.3758,0.3755,0.3646,0.3646,0.3645,0,0,0,0,0,0,0.4124,0.4112,0.4001,0.4046,0.4031,0.3979,0.3954,0.3945,0.3925,0.387,0.386,0.39,0.3816,0.3805,0.3762,0.3753,0.3756,0.3752,0.3647,0.3646,0.3645,0.3676,0,0,0,0,0,0,0.4128,0.4113,0.4102,0.4046,0.4028,0.3967,0.3953,0.3943,0.3918,0.3915,0.3857,0.3848,0.3816,0.3768,0.3757,0.3747,0.3748,0.3647,0.3646,0.3646,0.3676,0.3677,0.3677,0,0,0,0,0,0.4133,0.4114,0.4102,0.4089,0.4014,0.3967,0.3957,0.3921,0.3918,0.3905,0.387,0.385,0.3756,0.3764,0.3752,0.374,0.3647,0.3647,0.3646,0.3675,0.3676,0.3677,0,0,0,0,0,0,0.4169,0.4106,0.4092,0.4054,0.4016,0.396,0.3943,0.3924,0.3885,0.3884,0.384,0.3827,0.3788,0.376,0.377,0.3706,0.37,0.3696,0.3727,0.3727,0.3728,0.3736,0.3745,0,0,0,0,0,0.4173,0.4142,0.4087,0.4059,0.4041,0.3996,0.3974,0.395,0.3908,0.3892,0.3853,0.3812,0.3773,0.3749,0.371,0.3671,0.3657,0.3657,0.3658,0.3659,0.3656,0.3632,0.3631,0.3642,0.3642,0.3642,0,0,0.418,0.4142,0.4124,0.4065,0.4033,0.4,0.3982,0.3948,0.3922,0.3886,0.3843,0.3813,0.3765,0.3724,0.3703,0.3699,0.365,0.3658,0.3659,0.3656,0.3631,0.363,0.3629,0.3642,0.3642,0.3642,0,0,0.4176,0.4144,0.4117,0.4085,0.4037,0.4007,0.4001,0.3946,0.3926,0.3882,0.3854,0.3822,0.3756,0.3723,0.3697,0.3679,0.3659,0.3667,0.3672,0.3649,0.3649,0.3648,0.364,0.3638,0.3665,0.3665,0.3665,0,0.4191,0.4141,0.4105,0.4072,0.4046,0.4013,0.3984,0.3954,0.3896,0.3878,0.3873,0.379,0.3755,0.3705,0.37,0.3681,0.3671,0.3674,0.3652,0.365,0.3649,0.3641,0.3639,0.3666,0.3666,0.3666,0.3666,0,0.4161,0.4127,0.411,0.4055,0.4028,0.3997,0.3954,0.393,0.3908,0.3878,0.3833,0.379,0.3742,0.3728,0.3706,0.3674,0.3672,0.3661,0.3653,0.365,0.3642,0.3639,0.3668,0.3668,0.3667,0.3667,0,0,0.4177,0.4103,0.4097,0.4072,0.4016,0.3988,0.3955,0.3909,0.3888,0.3848,0.3819,0.3763,0.3752,0.3723,0.3696,0.3676,0.3663,0.3666,0.3664,0.3667,0.3624,0.3634,0.3631,0.365,0.3649,0.3648,0.3628,0,0.4165,0.4106,0.4072,0.4026,0.3994,0.3961,0.3931,0.3893,0.3863,0.383,0.3796,0.3758,0.3746,0.3728,0.3706,0.367,0.3654,0.3671,0.362,0.3619,0.3633,0.3627,0.3637,0.362,0.3625,0.3625,0.3624,0,0.4144,0.4106,0.4057,0.4004,0.3989,0.3964,0.3918,0.3887,0.3842,0.3821,0.3789,0.3762,0.3724,0.372,0.3665,0.3677,0.3654,0.3633,0.3631,0.3625,0.3621,0.362,0.3614,0.3611,0.3619,0.362,0.362,0,0.416,0.4096,0.4059,0.4038,0.3975,0.3958,0.3931,0.3886,0.386,0.382,0.3802,0.3757,0.3732,0.3697,0.3659,0.3659,0.3608,0.36,0.3588,0.3589,0.3579,0.358,0.3569,0.3565,0.3565,0.3565,0.3565,0,0.415,0.4121,0.4065,0.4042,0.4009,0.3969,0.3936,0.3906,0.3866,0.3835,0.3803,0.3774,0.3725,0.369,0.3659,0.3618,0.3607,0.3589,0.3581,0.3591,0.3594,0.3576,0.3576,0.3564,0.3565,0.3565,0.3565,0,0.4162,0.4124,0.4081,0.4025,0.401,0.3988,0.3939,0.3915,0.3883,0.3844,0.3833,0.3783,0.3739,0.3697,0.3639,0.3618,0.3577,0.3567,0.3593,0.3589,0.3579,0.358,0.3555,0.3549,0.355,0.355,0.355,0,0.4159,0.4136,0.4078,0.4056,0.403,0.3994,0.3967,0.3927,0.39,0.3846,0.3828,0.3782,0.3744,0.3676,0.3633,0.3588,0.3576,0.357,0.3569,0.358,0.3575,0.3577,0.3573,0.3571,0.3571,0.3571,0.3572,0,0.4155,0.4137,0.4101,0.4058,0.4028,0.3992,0.3954,0.3937,0.3889,0.386,0.3816,0.3786,0.3727,0.3681,0.3631,0.3601,0.3578,0.3572,0.3567,0.3578,0.3593,0.3584,0.3595,0.3573,0.3573,0.3573,0.3573,0.3573,0.4159,0.4137,0.4093,0.4053,0.4021,0.3986,0.396,0.3926,0.3889,0.3838,0.3816,0.3771,0.3725,0.3655,0.3625,0.3588,0.3582,0.3575,0.3573,0.3572,0.3574,0.36,0.3579,0.3579,0.3578,0.3578,0.3578,0,0.4154,0.4124,0.4088,0.4037,0.4005,0.3987,0.3944,0.3919,0.388,0.384,0.3803,0.3751,0.3707,0.3661,0.3613,0.3592,0.358,0.3581,0.3582,0.3575,0.3582,0.3591,0.3592,0.3592,0.3592,0.3592,0.3592,0.3592,0.4147,0.4109,0.4086,0.403,0.3999,0.3956,0.3933,0.39,0.3868,0.3813,0.3776,0.3747,0.3703,0.3652,0.361,0.3597,0.3581,0.3585,0.3569,0.3576,0.3575,0.3574,0.3583,0.3582,0.3582,0.3565,0.3565,0.3565]}]]